Houlton, ME

5:55 AM EDT on August 17, 2017 (GMT -0400)
Houlton International

Weather History for KHUL - August, 2013

Change the Weather History Date:

Friday, August 2, 2013

  Actual Average Record
Temperature  
Mean Temperature 64 °F 66 °F  
Max Temperature 69 °F 78 °F 99 °F (1975)
Min Temperature 59 °F 54 °F 40 °F (1950)
Degree Days  
Heating Degree Days 1 2  
Month to date heating degree days 1 4  
Since 1 June heating degree days 235 245  
Since 1 July heating degree days 38 64  
Cooling Degree Days 0 3  
Month to date cooling degree days 2 6  
Year to date cooling degree days 149 126  
Since 1 June cooling degree days 145 122  
Growing Degree Days 14 (Base 50)    
Moisture  
Dew Point 61 °F    
Average Humidity 89    
Maximum Humidity 100    
Minimum Humidity 78    
Precipitation  
Precipitation 0.59 in 0.14 in 2.03 in (1970)
Month to date precipitation 0.59 0.27  
Year to date precipitation 23.45 22.21  
Sea Level Pressure  
Sea Level Pressure 29.80 in    
Wind  
Wind Speed 6 mph (South)    
Max Wind Speed 10 mph    
Max Gust Speed 16 mph    
Visibility 6 miles    
Events Rain    
T = Trace of Precipitation, MM = Missing Value Source: NWS Daily Summary

Daily Weather History Graph

Daily Weather History Graph

Search for Another Location

Airport or City:

Trip Planner

Search our weather history database for the weather conditions in past years. The results will help you decide how hot, cold, wet, or windy it might be!

Date:

Astronomy

Aug. 02, 2013 Rise Set
Actual Time 5:14 AM EDT 7:59 PM EDT
Civil Twilight 4:40 AM EDT 8:33 PM EDT
Nautical Twilight 3:56 AM EDT 9:17 PM EDT
Astronomical Twilight 3:05 AM EDT 10:08 PM EDT
Moon 1:30 AM EDT (8/2) 4:56 PM EDT (8/2)
Length of Visible Light 15h 53m
Length of Day
14h 44m
Waning Crescent, 16% of the Moon is Illuminated
Aug 2
Waning Crescent
Aug 6
New
Aug 14
First Quarter
Aug 20
Full
Aug 28
Last Quarter

Hourly Weather History & Observations

Time (EDT) Temp. Dew Point Humidity Pressure Visibility Wind Dir Wind Speed Gust Speed Precip Events Conditions
12:53 AM 60.1 °F 57.0 °F 90% 29.88 in 10.0 mi Calm Calm - N/A   Clear
1:53 AM 60.1 °F 57.0 °F 90% 29.86 in 10.0 mi Variable 3.5 mph - N/A   Clear
2:53 AM 60.1 °F 55.9 °F 86% 29.84 in 10.0 mi SSE 5.8 mph - N/A   Clear
3:39 AM 60.8 °F 57.2 °F 88% 29.83 in 10.0 mi SSE 5.8 mph - N/A   Mostly Cloudy
3:53 AM 61.0 °F 57.0 °F 87% 29.83 in 10.0 mi Variable 4.6 mph - N/A   Overcast
4:04 AM 60.8 °F 57.2 °F 88% 29.83 in 10.0 mi SSE 5.8 mph - N/A   Overcast
4:50 AM 60.8 °F 57.2 °F 88% 29.83 in 4.0 mi South 4.6 mph - 0.00 in Rain Light Rain
4:53 AM 60.1 °F 57.9 °F 93% 29.83 in 4.0 mi South 5.8 mph - 0.00 in Rain Light Rain
5:39 AM 60.8 °F 59.0 °F 94% 29.83 in 5.0 mi SSE 4.6 mph - 0.00 in   Overcast
5:49 AM 60.8 °F 59.0 °F 94% 29.83 in 5.0 mi Variable 3.5 mph - 0.01 in   Overcast
5:53 AM 60.1 °F 59.0 °F 96% 29.83 in 4.0 mi SSE 4.6 mph - 0.01 in   Overcast
6:06 AM 60.8 °F 59.0 °F 94% 29.83 in 6.0 mi SSE 5.8 mph - N/A   Overcast
6:21 AM 60.8 °F 59.0 °F 94% 29.83 in 8.0 mi SSE 5.8 mph - 0.00 in Rain Light Rain
6:30 AM 60.8 °F 59.0 °F 94% 29.83 in 6.0 mi Variable 4.6 mph - 0.01 in Rain Light Rain
6:53 AM 61.0 °F 59.0 °F 93% 29.83 in 4.0 mi SSE 5.8 mph - 0.06 in Rain Rain
7:13 AM 60.8 °F 59.0 °F 94% 29.83 in 4.0 mi SSE 5.8 mph - 0.05 in Rain Rain
7:35 AM 60.8 °F 59.0 °F 94% 29.84 in 4.0 mi Variable 6.9 mph - 0.09 in Rain Rain
7:53 AM 61.0 °F 59.0 °F 93% 29.83 in 4.0 mi SSE 6.9 mph - 0.15 in Rain Rain
8:10 AM 60.8 °F 60.8 °F 100% 29.83 in 4.0 mi SSE 8.1 mph - 0.04 in Rain Rain
8:20 AM 60.8 °F 60.8 °F 100% 29.83 in 4.0 mi SSE 5.8 mph - 0.06 in Rain Rain
8:42 AM 60.8 °F 60.8 °F 100% 29.83 in 3.0 mi SSE 8.1 mph - 0.13 in Rain Rain
8:53 AM 61.0 °F 60.1 °F 97% 29.82 in 4.0 mi SSE 6.9 mph - 0.15 in Rain Light Rain
9:03 AM 60.8 °F 60.8 °F 100% 29.82 in 2.5 mi SSE 6.9 mph - 0.03 in Rain Rain
9:20 AM 62.6 °F 60.8 °F 94% 29.81 in 4.0 mi SE 8.1 mph - 0.08 in Rain Rain
9:40 AM 62.6 °F 60.8 °F 94% 29.81 in 9.0 mi SSE 10.4 mph - 0.08 in Rain Light Rain
9:53 AM 63.0 °F 61.0 °F 93% 29.81 in 10.0 mi Variable 6.9 mph - 0.09 in Rain Light Rain
10:40 AM 62.6 °F 60.8 °F 94% 29.80 in 7.0 mi South 8.1 mph - 0.01 in Rain Light Rain
10:53 AM 64.0 °F 62.1 °F 93% 29.79 in 6.0 mi South 6.9 mph - 0.02 in Rain Light Rain
11:53 AM 64.0 °F 62.1 °F 93% 29.79 in 10.0 mi South 6.9 mph - 0.00 in Rain Light Rain
12:53 PM 64.0 °F 62.1 °F 93% 29.78 in 4.0 mi SSW 10.4 mph 16.1 mph 0.01 in Rain Light Rain
1:08 PM 64.4 °F 62.6 °F 94% 29.78 in 2.5 mi South 5.8 mph - 0.00 in   Overcast
1:26 PM 64.4 °F 62.6 °F 94% 29.78 in 3.0 mi Variable 6.9 mph - 0.00 in   Overcast
1:35 PM 64.4 °F 62.6 °F 94% 29.78 in 2.0 mi SSW 5.8 mph - 0.00 in   Overcast
1:41 PM 64.4 °F 62.6 °F 94% 29.77 in 1.8 mi South 4.6 mph - 0.00 in   Overcast
1:48 PM 64.4 °F 62.6 °F 94% 29.77 in 1.8 mi South 6.9 mph - 0.00 in Rain Light Rain
1:53 PM 64.0 °F 62.1 °F 93% 29.78 in 1.8 mi South 6.9 mph - 0.00 in Rain Light Rain
2:14 PM 64.4 °F 62.6 °F 94% 29.78 in 1.2 mi South 6.9 mph - 0.08 in Rain Heavy Rain
2:19 PM 64.4 °F 62.6 °F 94% 29.77 in 2.0 mi SSE 5.8 mph - 0.08 in Rain Rain
2:23 PM 64.4 °F 62.6 °F 94% 29.76 in 3.0 mi SSE 6.9 mph - 0.09 in Rain Light Rain
2:32 PM 64.4 °F 62.6 °F 94% 29.76 in 8.0 mi SSE 5.8 mph - 0.09 in Rain Light Rain
2:53 PM 64.9 °F 63.0 °F 93% 29.76 in 9.0 mi South 5.8 mph - 0.10 in Rain Light Rain
3:15 PM 66.2 °F 62.6 °F 88% 29.77 in 10.0 mi SSW 6.9 mph - 0.00 in Rain Light Rain
3:43 PM 66.2 °F 64.4 °F 94% 29.75 in 10.0 mi SSW 6.9 mph - 0.00 in   Overcast
3:53 PM 66.9 °F 64.0 °F 90% 29.75 in 10.0 mi South 5.8 mph - 0.00 in   Overcast
4:53 PM 69.1 °F 63.0 °F 81% 29.74 in 10.0 mi South 6.9 mph - N/A   Scattered Clouds
5:53 PM 66.0 °F 62.1 °F 87% 29.74 in 10.0 mi Calm Calm - N/A   Clear
6:53 PM 66.0 °F 63.0 °F 90% 29.74 in 10.0 mi South 4.6 mph - N/A   Clear
7:53 PM 64.9 °F 62.1 °F 90% 29.73 in 10.0 mi SSW 4.6 mph - 0.00 in   Clear
8:53 PM 64.0 °F 62.1 °F 93% 29.75 in 10.0 mi South 3.5 mph - N/A   Clear
9:53 PM 64.0 °F 62.1 °F 93% 29.78 in 10.0 mi South 5.8 mph - N/A   Overcast
10:53 PM 63.0 °F 60.1 °F 90% 29.77 in 10.0 mi SSW 8.1 mph - N/A   Partly Cloudy
11:53 PM 61.0 °F 57.0 °F 87% 29.76 in 10.0 mi SSW 6.9 mph - N/A   Clear